Time,TemperatureF,DewpointF,PressureIn,WindDirection,WindDirectionDegrees,WindSpeedMPH,WindSpeedGustMPH,Humidity,HourlyPrecipIn,Conditions,Clouds,dailyrainin,SoftwareType,DateUTC
2013-02-21 00:02:00,21.0,16.0,30.26,North,9,6.0,16.0,81,0.00,,,0.00,,2013-02-21 05:02:00,
2013-02-21 00:12:00,21.0,16.0,30.26,North,9,6.0,16.0,81,0.00,,,0.00,,2013-02-21 05:12:00,
2013-02-21 00:22:00,21.0,16.0,30.27,NNW,346,6.0,12.0,79,0.00,,,0.00,,2013-02-21 05:22:00,
2013-02-21 00:35:00,21.0,16.0,30.27,North,9,5.0,20.0,79,0.00,,,0.00,,2013-02-21 05:35:00,
2013-02-21 00:46:00,21.0,16.0,30.27,North,9,5.0,20.0,79,0.00,,,0.00,,2013-02-21 05:46:00,
2013-02-21 01:00:00,21.0,16.0,30.27,North,349,9.0,16.0,79,0.00,,,0.00,,2013-02-21 06:00:00,
2013-02-21 01:11:00,21.0,15.0,30.27,NNW,338,12.0,17.0,78,0.00,,,0.00,,2013-02-21 06:11:00,
2013-02-21 01:21:00,21.0,15.0,30.29,North,351,5.0,9.0,77,0.00,,,0.00,,2013-02-21 06:21:00,
2013-02-21 01:31:00,21.0,15.0,30.28,North,350,5.0,10.0,78,0.00,,,0.00,,2013-02-21 06:31:00,
2013-02-21 01:41:00,21.0,15.0,30.28,North,350,5.0,10.0,78,0.00,,,0.00,,2013-02-21 06:41:00,
2013-02-21 01:51:00,21.0,16.0,30.28,North,350,5.0,12.0,79,0.00,,,0.00,,2013-02-21 06:51:00,
2013-02-21 02:01:00,21.0,16.0,30.28,North,360,5.0,11.0,80,0.00,,,0.00,,2013-02-21 07:01:00,
2013-02-21 02:11:00,21.0,16.0,30.28,North,350,3.0,13.0,80,0.00,,,0.00,,2013-02-21 07:11:00,
2013-02-21 02:21:00,21.0,16.0,30.28,North,350,3.0,13.0,80,0.00,,,0.00,,2013-02-21 07:21:00,
2013-02-21 02:32:00,21.0,16.0,30.28,NNW,327,6.0,13.0,80,0.00,,,0.00,,2013-02-21 07:32:00,
2013-02-21 02:42:00,21.0,16.0,30.29,North,350,1.0,11.0,79,0.00,,,0.00,,2013-02-21 07:42:00,
2013-02-21 02:52:00,21.0,16.0,30.29,North,350,1.0,11.0,79,0.00,,,0.00,,2013-02-21 07:52:00,
2013-02-21 03:01:00,21.0,16.0,30.28,North,349,5.0,9.0,79,0.00,,,0.00,,2013-02-21 08:01:00,
2013-02-21 03:11:00,21.0,16.0,30.29,North,351,0.0,9.0,79,0.00,,,0.00,,2013-02-21 08:11:00,
2013-02-21 03:21:00,21.0,16.0,30.29,North,351,0.0,9.0,79,0.00,,,0.00,,2013-02-21 08:21:00,
2013-02-21 03:32:00,21.0,16.0,30.29,North,351,0.0,9.0,79,0.00,,,0.00,,2013-02-21 08:32:00,
2013-02-21 03:42:00,21.0,16.0,30.29,North,351,0.0,9.0,79,0.00,,,0.00,,2013-02-21 08:42:00,
2013-02-21 03:52:00,21.0,16.0,30.28,North,351,1.0,12.0,79,0.00,,,0.00,,2013-02-21 08:52:00,
2013-02-21 04:01:00,21.0,15.0,30.27,NNW,348,10.0,12.0,78,0.00,,,0.00,,2013-02-21 09:01:00,
2013-02-21 04:11:00,21.0,15.0,30.27,NNW,348,10.0,12.0,78,0.00,,,0.00,,2013-02-21 09:11:00,
2013-02-21 04:22:00,22.0,16.0,30.27,NNW,336,8.0,12.0,79,0.00,,,0.00,,2013-02-21 09:22:00,
2013-02-21 04:32:00,22.0,16.0,30.28,NNW,340,2.0,11.0,79,0.00,,,0.00,,2013-02-21 09:32:00,
2013-02-21 04:42:00,22.0,16.0,30.27,NNW,341,4.0,10.0,79,0.00,,,0.00,,2013-02-21 09:42:00,
2013-02-21 04:52:00,22.0,16.0,30.27,NNW,341,4.0,10.0,79,0.00,,,0.00,,2013-02-21 09:52:00,
2013-02-21 05:01:00,22.0,16.0,30.27,NNE,16,7.0,15.0,78,0.00,,,0.00,,2013-02-21 10:01:00,
2013-02-21 05:11:00,22.0,16.0,30.27,NNE,16,7.0,15.0,78,0.00,,,0.00,,2013-02-21 10:11:00,
2013-02-21 05:21:00,22.0,16.0,30.27,NNE,28,3.0,10.0,79,0.00,,,0.00,,2013-02-21 10:21:00,
2013-02-21 05:31:00,22.0,16.0,30.27,NNE,15,7.0,10.0,79,0.00,,,0.00,,2013-02-21 10:31:00,
2013-02-21 05:41:00,22.0,16.0,30.27,NNE,15,7.0,10.0,79,0.00,,,0.00,,2013-02-21 10:41:00,
2013-02-21 05:51:00,22.0,16.0,30.28,NNE,12,0.0,12.0,79,0.00,,,0.00,,2013-02-21 10:51:00,
2013-02-21 06:01:00,22.0,16.0,30.28,NNW,346,3.0,11.0,79,0.00,,,0.00,,2013-02-21 11:01:00,
2013-02-21 06:11:00,22.0,16.0,30.28,NNW,346,3.0,11.0,79,0.00,,,0.00,,2013-02-21 11:11:00,
2013-02-21 06:21:00,22.0,16.0,30.29,North,360,1.0,10.0,79,0.00,,,0.00,,2013-02-21 11:21:00,
2013-02-21 06:31:00,22.0,16.0,30.29,North,5,8.0,15.0,79,0.00,,,0.00,,2013-02-21 11:31:00,
2013-02-21 06:41:00,22.0,16.0,30.29,North,5,8.0,15.0,79,0.00,,,0.00,,2013-02-21 11:41:00,
2013-02-21 06:52:00,22.0,16.0,30.29,North,5,8.0,15.0,79,0.00,,,0.00,,2013-02-21 11:52:00,
2013-02-21 07:01:00,22.0,17.0,30.29,NE,38,9.0,12.0,80,0.00,,,0.00,,2013-02-21 12:01:00,
2013-02-21 07:11:00,22.0,17.0,30.29,NE,38,9.0,12.0,80,0.00,,,0.00,,2013-02-21 12:11:00,
2013-02-21 07:22:00,22.0,17.0,30.31,NNE,25,6.0,11.0,80,0.00,,,0.00,,2013-02-21 12:22:00,
2013-02-21 07:32:00,21.0,16.0,30.32,NNE,30,6.0,11.0,81,0.00,,,0.00,,2013-02-21 12:32:00,
2013-02-21 07:42:00,21.0,16.0,30.29,NNE,26,7.0,12.0,81,0.00,,,0.00,,2013-02-21 12:42:00,
2013-02-21 07:53:00,21.0,16.0,30.29,NNE,26,7.0,12.0,81,0.00,,,0.00,,2013-02-21 12:53:00,
2013-02-21 08:02:00,21.0,16.0,30.30,NNE,33,0.0,7.0,81,0.00,,,0.00,,2013-02-21 13:02:00,
2013-02-21 08:12:00,21.0,16.0,30.30,NNE,33,0.0,7.0,81,0.00,,,0.00,,2013-02-21 13:12:00,
2013-02-21 08:22:00,21.0,16.0,30.30,NNE,33,0.0,7.0,81,0.00,,,0.00,,2013-02-21 13:22:00,
2013-02-21 08:32:00,21.0,16.0,30.31,North,5,0.0,10.0,81,0.00,,,0.00,,2013-02-21 13:32:00,
2013-02-21 08:42:00,21.0,16.0,30.31,North,5,0.0,10.0,81,0.00,,,0.00,,2013-02-21 13:42:00,
2013-02-21 08:52:00,21.0,16.0,30.32,NNE,23,0.0,10.0,81,0.00,,,0.00,,2013-02-21 13:52:00,
2013-02-21 09:02:00,21.0,16.0,30.32,NE,41,3.0,7.0,81,0.00,,,0.00,,2013-02-21 14:02:00,
2013-02-21 09:11:00,21.0,16.0,30.32,NE,41,3.0,7.0,81,0.00,,,0.00,,2013-02-21 14:11:00,
2013-02-21 09:22:00,21.0,16.0,30.31,NE,56,2.0,10.0,81,0.00,,,0.00,,2013-02-21 14:22:00,
2013-02-21 09:32:00,21.0,16.0,30.30,NE,34,2.0,3.0,80,0.00,,,0.00,,2013-02-21 14:32:00,
2013-02-21 09:42:00,21.0,16.0,30.30,NE,34,2.0,3.0,80,0.00,,,0.00,,2013-02-21 14:42:00,
2013-02-21 09:52:00,21.0,16.0,30.32,NE,38,0.0,0.0,80,0.00,,,0.00,,2013-02-21 14:52:00,
2013-02-21 10:02:00,21.0,16.0,30.32,NNE,26,0.0,6.0,81,0.00,,,0.00,,2013-02-21 15:02:00,
2013-02-21 10:12:00,21.0,16.0,30.32,NNE,26,0.0,6.0,81,0.00,,,0.00,,2013-02-21 15:12:00,
2013-02-21 10:21:00,21.0,16.0,30.32,NE,42,3.0,7.0,81,0.00,,,0.00,,2013-02-21 15:21:00,
2013-02-21 10:32:00,22.0,16.0,30.31,ENE,67,3.0,7.0,78,0.00,,,0.00,,2013-02-21 15:32:00,
2013-02-21 10:42:00,22.0,16.0,30.31,ENE,67,3.0,7.0,78,0.00,,,0.00,,2013-02-21 15:42:00,
2013-02-21 10:52:00,22.0,16.0,30.30,ENE,72,0.0,6.0,76,0.00,,,0.00,,2013-02-21 15:52:00,
2013-02-21 11:01:00,22.0,16.0,30.30,East,86,4.0,11.0,77,0.00,,,0.00,,2013-02-21 16:01:00,
2013-02-21 11:12:00,23.0,17.0,30.31,ENE,67,4.0,12.0,77,0.00,,,0.00,,2013-02-21 16:12:00,
2013-02-21 11:22:00,23.0,17.0,30.31,ENE,67,4.0,12.0,77,0.00,,,0.00,,2013-02-21 16:22:00,
2013-02-21 11:32:00,23.0,17.0,30.31,ESE,107,7.0,10.0,77,0.00,,,0.00,,2013-02-21 16:32:00,
2013-02-21 11:42:00,22.0,16.0,30.32,SE,140,5.0,10.0,77,0.00,,,0.00,,2013-02-21 16:42:00,
2013-02-21 11:52:00,22.0,16.0,30.32,SE,140,5.0,10.0,77,0.00,,,0.00,,2013-02-21 16:52:00,
2013-02-21 12:01:00,23.0,17.0,30.33,ESE,122,1.0,9.0,77,0.00,,,0.00,,2013-02-21 17:01:00,
2013-02-21 12:11:00,23.0,17.0,30.32,ESE,109,0.0,7.0,77,0.00,,,0.00,,2013-02-21 17:11:00,
2013-02-21 12:21:00,23.0,17.0,30.32,ESE,109,0.0,7.0,77,0.00,,,0.00,,2013-02-21 17:21:00,
2013-02-21 12:32:00,23.0,17.0,30.30,ENE,70,3.0,11.0,77,0.00,,,0.00,,2013-02-21 17:32:00,
2013-02-21 12:42:00,23.0,17.0,30.30,ENE,70,3.0,11.0,77,0.00,,,0.00,,2013-02-21 17:42:00,
2013-02-21 12:52:00,23.0,17.0,30.30,East,88,3.0,11.0,76,0.00,,,0.00,,2013-02-21 17:52:00,
2013-02-21 13:02:00,24.0,18.0,30.29,ENE,65,3.0,11.0,76,0.00,,,0.00,,2013-02-21 18:02:00,
2013-02-21 13:12:00,24.0,18.0,30.29,ENE,65,3.0,11.0,76,0.00,,,0.00,,2013-02-21 18:12:00,
2013-02-21 13:22:00,23.0,16.0,30.27,ENE,78,7.0,13.0,75,0.00,,,0.00,,2013-02-21 18:22:00,
2013-02-21 13:32:00,24.0,17.0,30.26,NE,49,2.0,14.0,75,0.00,,,0.00,,2013-02-21 18:32:00,
2013-02-21 13:42:00,24.0,17.0,30.26,NE,49,2.0,14.0,75,0.00,,,0.00,,2013-02-21 18:42:00,
2013-02-21 13:52:00,24.0,17.0,30.26,ESE,112,8.0,12.0,75,0.00,,,0.00,,2013-02-21 18:52:00,
2013-02-21 14:01:00,24.0,17.0,30.25,East,82,2.0,13.0,75,0.00,,,0.00,,2013-02-21 19:01:00,
2013-02-21 14:12:00,24.0,17.0,30.25,East,82,2.0,13.0,75,0.00,,,0.00,,2013-02-21 19:12:00,
2013-02-21 14:21:00,24.0,17.0,30.24,ENE,63,9.0,17.0,74,0.00,,,0.00,,2013-02-21 19:21:00,
2013-02-21 14:32:00,25.0,18.0,30.22,ESE,115,8.0,14.0,74,0.00,,,0.00,,2013-02-21 19:32:00,
2013-02-21 14:42:00,25.0,18.0,30.22,ESE,115,8.0,14.0,74,0.00,,,0.00,,2013-02-21 19:42:00,
2013-02-21 14:52:00,25.0,18.0,30.21,ESE,104,11.0,16.0,74,0.00,,,0.00,,2013-02-21 19:52:00,
2013-02-21 15:01:00,25.0,18.0,30.17,East,83,8.0,14.0,74,0.00,,,0.00,,2013-02-21 20:01:00,
2013-02-21 15:11:00,25.0,18.0,30.17,ENE,70,9.0,16.0,75,0.00,,,0.00,,2013-02-21 20:11:00,
2013-02-21 15:21:00,25.0,18.0,30.17,ENE,70,9.0,16.0,75,0.00,,,0.00,,2013-02-21 20:21:00,
2013-02-21 15:32:00,25.0,18.0,30.20,ESE,119,6.0,15.0,75,0.00,,,0.00,,2013-02-21 20:32:00,
2013-02-21 15:42:00,25.0,18.0,30.20,ESE,119,6.0,15.0,75,0.00,,,0.00,,2013-02-21 20:42:00,
2013-02-21 15:53:00,26.0,19.0,30.21,SE,124,6.0,16.0,74,0.00,,,0.00,,2013-02-21 20:53:00,
2013-02-21 16:02:00,26.0,19.0,30.18,ESE,111,11.0,19.0,75,0.00,,,0.00,,2013-02-21 21:02:00,
2013-02-21 16:12:00,26.0,19.0,30.20,ENE,74,7.0,14.0,75,0.00,,,0.00,,2013-02-21 21:12:00,
2013-02-21 16:22:00,26.0,19.0,30.20,ENE,74,7.0,14.0,75,0.00,,,0.00,,2013-02-21 21:22:00,
2013-02-21 16:32:00,26.0,19.0,30.22,ESE,102,7.0,19.0,75,0.00,,,0.00,,2013-02-21 21:32:00,
2013-02-21 16:42:00,26.0,19.0,30.22,East,87,9.0,15.0,76,0.00,,,0.00,,2013-02-21 21:42:00,
2013-02-21 16:52:00,26.0,19.0,30.22,East,87,9.0,15.0,76,0.00,,,0.00,,2013-02-21 21:52:00,
2013-02-21 17:01:00,25.0,19.0,30.22,ESE,106,4.0,15.0,76,0.00,,,0.00,,2013-02-21 22:01:00,
2013-02-21 17:11:00,25.0,19.0,30.22,ESE,106,4.0,15.0,76,0.00,,,0.00,,2013-02-21 22:11:00,
2013-02-21 17:21:00,26.0,19.0,30.23,East,97,5.0,14.0,76,0.00,,,0.00,,2013-02-21 22:21:00,
2013-02-21 17:32:00,26.0,19.0,30.23,ESE,111,9.0,17.0,75,0.00,,,0.00,,2013-02-21 22:32:00,
2013-02-21 17:42:00,26.0,19.0,30.22,ESE,115,9.0,19.0,75,0.00,,,0.00,,2013-02-21 22:42:00,
2013-02-21 17:52:00,26.0,19.0,30.22,ESE,115,9.0,19.0,75,0.00,,,0.00,,2013-02-21 22:52:00,
2013-02-21 18:01:00,26.0,19.0,30.22,ESE,115,9.0,19.0,75,0.00,,,0.00,,2013-02-21 23:01:00,
2013-02-21 18:11:00,26.0,19.0,30.22,ESE,115,9.0,19.0,75,0.00,,,0.00,,2013-02-21 23:11:00,
2013-02-21 18:21:00,26.0,19.0,30.19,East,93,6.0,15.0,75,0.00,,,0.00,,2013-02-21 23:21:00,
2013-02-21 18:32:00,26.0,19.0,30.20,ESE,118,9.0,17.0,76,0.00,,,0.00,,2013-02-21 23:32:00,
2013-02-21 18:42:00,26.0,19.0,30.20,ESE,118,9.0,17.0,76,0.00,,,0.00,,2013-02-21 23:42:00,
2013-02-21 18:52:00,26.0,19.0,30.19,East,85,13.0,19.0,76,0.00,,,0.00,,2013-02-21 23:52:00,
2013-02-21 19:01:00,25.0,19.0,30.19,ESE,105,7.0,19.0,76,0.00,,,0.00,,2013-02-22 00:01:00,
2013-02-21 19:11:00,25.0,19.0,30.19,ESE,105,7.0,19.0,76,0.00,,,0.00,,2013-02-22 00:11:00,
2013-02-21 19:22:00,25.0,19.0,30.18,East,95,10.0,16.0,77,0.00,,,0.00,,2013-02-22 00:22:00,
2013-02-21 19:32:00,25.0,19.0,30.17,East,96,10.0,21.0,77,0.00,,,0.00,,2013-02-22 00:32:00,
2013-02-21 19:42:00,25.0,19.0,30.17,East,96,10.0,21.0,77,0.00,,,0.00,,2013-02-22 00:42:00,
2013-02-21 19:52:00,25.0,19.0,30.16,ESE,107,16.0,20.0,77,0.00,,,0.00,,2013-02-22 00:52:00,
2013-02-21 20:01:00,25.0,19.0,30.17,ENE,59,11.0,24.0,78,0.00,,,0.00,,2013-02-22 01:01:00,
2013-02-21 20:11:00,25.0,19.0,30.17,ENE,59,11.0,24.0,78,0.00,,,0.00,,2013-02-22 01:11:00,
2013-02-21 20:22:00,25.0,19.0,30.18,ESE,117,13.0,25.0,78,0.00,,,0.00,,2013-02-22 01:22:00,
2013-02-21 20:32:00,25.0,19.0,30.18,ESE,117,13.0,25.0,78,0.00,,,0.00,,2013-02-22 01:32:00,
2013-02-21 20:42:00,25.0,19.0,30.18,ESE,117,13.0,25.0,78,0.00,,,0.00,,2013-02-22 01:42:00,
2013-02-21 20:52:00,25.0,20.0,30.17,ESE,115,12.0,21.0,80,0.00,,,0.00,,2013-02-22 01:52:00,
2013-02-21 21:02:00,25.0,20.0,30.16,ESE,119,9.0,20.0,80,0.00,,,0.00,,2013-02-22 02:02:00,
2013-02-21 21:11:00,25.0,20.0,30.16,ESE,119,9.0,20.0,80,0.00,,,0.00,,2013-02-22 02:11:00,
2013-02-21 21:21:00,25.0,20.0,30.15,SE,128,19.0,22.0,81,0.00,,,0.00,,2013-02-22 02:21:00,
2013-02-21 21:32:00,24.0,19.0,30.13,ESE,112,14.0,18.0,81,0.00,,,0.00,,2013-02-22 02:32:00,
2013-02-21 21:42:00,24.0,19.0,30.13,ESE,103,16.0,25.0,82,0.00,,,0.00,,2013-02-22 02:42:00,
2013-02-21 21:52:00,24.0,19.0,30.13,ESE,103,16.0,25.0,82,0.00,,,0.00,,2013-02-22 02:52:00,
2013-02-21 22:02:00,24.0,19.0,30.15,SE,133,15.0,19.0,82,0.00,,,0.00,,2013-02-22 03:02:00,
2013-02-21 22:11:00,24.0,19.0,30.15,SE,133,15.0,19.0,82,0.00,,,0.00,,2013-02-22 03:11:00,
2013-02-21 22:21:00,24.0,19.0,30.15,SE,133,15.0,19.0,82,0.00,,,0.00,,2013-02-22 03:21:00,
2013-02-21 22:32:00,24.0,19.0,30.15,SE,133,15.0,19.0,82,0.00,,,0.00,,2013-02-22 03:32:00,
2013-02-21 22:42:00,24.0,19.0,30.15,SE,133,15.0,19.0,82,0.00,,,0.00,,2013-02-22 03:42:00,
2013-02-21 22:52:00,24.0,19.0,30.12,East,80,13.0,19.0,81,0.00,,,0.00,,2013-02-22 03:52:00,
2013-02-21 23:02:00,24.0,19.0,30.09,ENE,76,11.0,20.0,81,0.00,,,0.00,,2013-02-22 04:02:00,
2013-02-21 23:11:00,24.0,19.0,30.09,East,100,9.0,19.0,81,0.00,,,0.00,,2013-02-22 04:11:00,
2013-02-21 23:21:00,24.0,19.0,30.09,East,100,9.0,19.0,81,0.00,,,0.00,,2013-02-22 04:21:00,
2013-02-21 23:32:00,23.0,18.0,30.07,ESE,113,13.0,23.0,82,0.00,,,0.00,,2013-02-22 04:32:00,
2013-02-21 23:42:00,23.0,18.0,30.07,ESE,113,13.0,23.0,82,0.00,,,0.00,,2013-02-22 04:42:00,
2013-02-21 23:52:00,23.0,19.0,30.07,ESE,103,10.0,18.0,84,0.00,,,0.00,,2013-02-22 04:52:00,